Burlington, NC

6:01 PM EDT on September 23, 2017 (GMT -0400)
Burlington-Alamance Regional

Weather History for KBUY - September, 2013

Change the Weather History Date:

Saturday, September 14, 2013

  Actual Average Record
Temperature  
Mean Temperature 65 °F -  
Max Temperature 75 °F 83 °F 94 °F (1956)
Min Temperature 55 °F 59 °F 44 °F (1985)
Growing Degree Days 15 (Base 50)    
Moisture  
Dew Point 49 °F    
Average Humidity 59    
Maximum Humidity 86    
Minimum Humidity 41    
Precipitation  
Precipitation 0.00 in - - ()
Sea Level Pressure  
Sea Level Pressure 30.05 in    
Wind  
Wind Speed 7 mph (North)    
Max Wind Speed 13 mph    
Max Gust Speed -    
Visibility 10 miles    
Events      
Averages and records for this station are not official NWS values.
T = Trace of Precipitation, MM = Missing Value Source: NWS Daily Summary

Daily Weather History Graph

Daily Weather History Graph

Search for Another Location

Airport or City:

Trip Planner

Search our weather history database for the weather conditions in past years. The results will help you decide how hot, cold, wet, or windy it might be!

Date:

Astronomy

Sep. 14, 2013 Rise Set
Actual Time 6:59 AM EDT 7:26 PM EDT
Civil Twilight 6:34 AM EDT 7:51 PM EDT
Nautical Twilight 6:03 AM EDT 8:22 PM EDT
Astronomical Twilight 5:32 AM EDT 8:52 PM EDT
Moon 3:59 PM EDT (9/14) 1:37 AM EDT (9/14)
Length of Visible Light 13h 17m
Length of Day
12h 26m
Waxing Gibbous, 72% of the Moon is Illuminated
Sep 14
Waxing Gibbous
Sep 19
Full
Sep 26
Last Quarter
Oct 4
New
Oct 11
First Quarter

Hourly Weather History & Observations

Time (EDT) Temp. Dew Point Humidity Pressure Visibility Wind Dir Wind Speed Gust Speed Precip Events Conditions
12:54 AM 64.0 °F 46.9 °F 54% 29.92 in 10.0 mi North 10.4 mph - N/A   Scattered Clouds
1:54 AM 62.1 °F 46.9 °F 58% 29.93 in 10.0 mi North 8.1 mph - N/A   Scattered Clouds
2:54 AM 61.0 °F 46.0 °F 58% 29.94 in 10.0 mi North 6.9 mph - N/A   Scattered Clouds
3:54 AM 59.0 °F 46.9 °F 64% 29.95 in 10.0 mi North 5.8 mph - N/A   Scattered Clouds
4:54 AM 57.9 °F 48.0 °F 70% 29.96 in 10.0 mi North 3.5 mph - N/A   Mostly Cloudy
5:54 AM 57.0 °F 48.9 °F 74% 29.98 in 10.0 mi North 4.6 mph - N/A   Overcast
6:54 AM 57.0 °F 48.9 °F 74% 30.01 in 10.0 mi North 5.8 mph - N/A   Mostly Cloudy
7:54 AM 57.9 °F 48.0 °F 70% 30.04 in 10.0 mi NNE 10.4 mph - N/A   Mostly Cloudy
8:54 AM 61.0 °F 48.0 °F 62% 30.06 in 10.0 mi North 11.5 mph - N/A   Scattered Clouds
9:54 AM 62.1 °F 45.0 °F 53% 30.08 in 10.0 mi NNE 12.7 mph - N/A   Mostly Cloudy
10:54 AM 64.9 °F 46.0 °F 50% 30.09 in 10.0 mi North 12.7 mph - N/A   Mostly Cloudy
11:54 AM 68.0 °F 46.9 °F 47% 30.09 in 10.0 mi North 10.4 mph - N/A   Overcast
12:54 PM 71.1 °F 48.0 °F 44% 30.08 in 10.0 mi North 9.2 mph - N/A   Clear
1:54 PM 72.0 °F 48.0 °F 43% 30.06 in 10.0 mi NNE 5.8 mph - N/A   Clear
2:54 PM 73.0 °F 48.9 °F 42% 30.06 in 10.0 mi Variable 3.5 mph - N/A   Partly Cloudy
3:54 PM 73.0 °F 48.0 °F 41% 30.04 in 10.0 mi Variable 4.6 mph - N/A   Clear
4:54 PM 73.9 °F 48.9 °F 41% 30.05 in 10.0 mi Calm Calm - N/A   Partly Cloudy
5:54 PM 73.0 °F 50.0 °F 44% 30.06 in 10.0 mi Calm Calm - N/A   Clear
6:54 PM 71.1 °F 51.1 °F 49% 30.07 in 10.0 mi North 3.5 mph - N/A   Clear
7:54 PM 64.9 °F 52.0 °F 63% 30.08 in 10.0 mi Calm Calm - N/A   Clear
8:54 PM 61.0 °F 53.1 °F 75% 30.11 in 10.0 mi Calm Calm - N/A   Clear
9:54 PM 59.0 °F 53.1 °F 81% 30.14 in 10.0 mi Calm Calm - N/A   Clear
10:54 PM 57.0 °F 52.0 °F 83% 30.14 in 10.0 mi Calm Calm - N/A   Clear
11:54 PM 55.0 °F 51.1 °F 86% 30.15 in 10.0 mi Calm Calm - N/A   Clear